Weather reports worldwide

Advertisment
St. Mary's, United Kingdom (3803): temperature & dewpoint: 17.04.2019 18:00:00 - 23.04.2019 18:00:00 (BST)St. Mary's, United Kingdom (3803): temperature -20cm: 17.04.2019 18:00:00 - 23.04.2019 18:00:00 (BST)St. Mary's, United Kingdom (3803): wind speed & gusts: 17.04.2019 18:00:00 - 23.04.2019 18:00:00 (BST)St. Mary's, United Kingdom (3803): wind direction: 17.04.2019 18:00:00 - 23.04.2019 18:00:00 (BST)St. Mary's, United Kingdom (3803): reduced air pressure: 17.04.2019 18:00:00 - 23.04.2019 18:00:00 (BST)St. Mary's, United Kingdom (3803): visibility: 17.04.2019 18:00:00 - 23.04.2019 18:00:00 (BST)St. Mary's, United Kingdom (3803): precipitation: 17.04.2019 18:00:00 - 23.04.2019 18:00:00 (BST)
Date & Time tt [°C] td [°C] tt -20cm [°C] ff [km/h] ff [kn] fx [km/h] fx [kn] dd ppp [hPa] vv [km] rr [mm]
23.04.2019 18:00:00 - - - - - - - - - - -
23.04.2019 17:00:00 13,3 10,9 - 15 8 - - ESE 992,7 10 0,0
23.04.2019 16:00:00 13,6 11,2 - 21 11 - - ESE 993,0 7 0,0
23.04.2019 15:00:00 13,6 11,4 - 18 10 - - E 993,3 10 0,0
23.04.2019 14:00:00 14,2 11,4 - 15 8 - - E 993,6 10 0,0
23.04.2019 13:00:00 13,4 11,1 - 15 8 - - SE 993,8 9 0,0
23.04.2019 12:00:00 13,3 11,6 - 21 11 - - SE 993,9 18 0,0
23.04.2019 11:00:00 13,3 11,6 - 15 8 - - SE 993,7 15 0,0
23.04.2019 10:00:00 13,0 11,5 13,0 16 9 - - SE 993,7 9 0,0
23.04.2019 09:00:00 12,3 10,9 - 16 9 - - SE 993,4 9 0,0
23.04.2019 08:00:00 11,7 10,3 - 21 11 - - SE 993,4 10 0,0
23.04.2019 07:00:00 11,4 10,0 - 22 12 - - E 993,0 10 0,0
23.04.2019 06:00:00 11,8 9,8 - 24 13 - - E 993,1 15 0,0
23.04.2019 05:00:00 12,1 9,7 - 24 13 - - ESE 993,7 19 0,0
23.04.2019 04:00:00 12,3 9,9 - 31 17 - - E 994,1 15 0,0
23.04.2019 03:00:00 12,3 9,9 - 29 16 - - E 994,6 11 0,0
23.04.2019 02:00:00 12,0 9,9 - 37 20 50 27 E 995,0 7 0,0
23.04.2019 01:00:00 12,1 9,5 - 35 19 46 25 E 995,8 8 0,0
23.04.2019 00:00:00 12,0 9,1 - 34 18 46 25 E 996,5 15 0,0
22.04.2019 23:00:00 11,8 9,6 - 28 15 - - E 997,1 12 0,0
22.04.2019 22:00:00 11,5 9,9 - 26 14 - - E 998,0 7 0,0
22.04.2019 21:00:00 11,6 10,0 - 24 13 - - E 998,4 9 0,0
22.04.2019 20:00:00 11,7 10,0 - 15 8 - - E 998,4 21 0,0
22.04.2019 19:00:00 12,0 10,0 - 15 8 - - SE 998,5 25 0,0
22.04.2019 18:00:00 12,2 10,4 - 16 9 - - SSE 998,8 10 0,0
22.04.2019 17:00:00 12,2 10,5 - 18 10 - - SSE 999,2 10 0,0
22.04.2019 16:00:00 13,4 11,1 - 24 13 - - SSE 999,6 10 0,0
22.04.2019 15:00:00 12,7 11,3 - 21 11 - - SE 1000,3 5 0,0
22.04.2019 14:00:00 12,9 11,4 - 24 13 - - SSE 1000,8 3,0 0,0
22.04.2019 13:00:00 12,9 11,2 - 28 15 - - SSE 1001,1 2,0 0,0
22.04.2019 12:00:00 13,5 11,6 - 22 12 - - SSE 1001,5 6 0,0
22.04.2019 11:00:00 12,8 11,0 - 24 13 - - ESE 1001,8 7 0,0
22.04.2019 10:00:00 12,8 11,1 13,0 21 11 - - ESE 1002,2 2,5 0,0
22.04.2019 09:00:00 12,2 10,8 - 21 11 - - ESE 1002,8 2,5 0,0
22.04.2019 08:00:00 11,5 10,6 - 16 9 - - ESE 1003,2 1,9 0,0
22.04.2019 07:00:00 10,8 10,0 - 13 7 - - E 1003,8 2,8 0,0
22.04.2019 06:00:00 10,6 9,6 - 13 7 - - ESE 1004,6 2,6 0,0
22.04.2019 05:00:00 10,7 9,4 - 16 9 - - ESE 1005,5 3,7 0,0
22.04.2019 04:00:00 10,8 9,3 - 21 11 - - ESE 1006,4 4,7 0,0
22.04.2019 03:00:00 10,8 9,0 - 21 11 - - E 1007,5 6 0,0
22.04.2019 02:00:00 10,4 8,8 - 16 9 - - E 1008,7 8 0,0
22.04.2019 01:00:00 10,4 8,9 - 11 6 - - E 1009,9 6 0,0
22.04.2019 00:00:00 10,6 8,4 - 13 7 - - E 1011,0 9 0,0
21.04.2019 23:00:00 11,2 8,1 - 13 7 - - E 1011,9 12 0,0
21.04.2019 22:00:00 11,4 8,8 - 15 8 - - ESE 1012,6 10 0,0
21.04.2019 21:00:00 11,8 8,7 - 13 7 - - ESE 1013,3 11 0,0
21.04.2019 20:00:00 12,9 8,1 - 11 6 - - ESE 1014,0 14 0,0
21.04.2019 19:00:00 13,9 8,1 - 13 7 - - ESE 1014,7 13 0,0
21.04.2019 18:00:00 14,2 7,9 - 13 7 - - ESE 1015,6 13 0,0
21.04.2019 17:00:00 14,4 8,4 - 11 6 - - SE 1016,6 14 0,0
21.04.2019 16:00:00 14,7 9,0 - 15 8 - - ESE 1017,3 20 0,0
21.04.2019 15:00:00 14,2 9,3 - 15 8 - - ESE 1018,1 12 0,0
21.04.2019 14:00:00 14,8 9,6 - 13 7 - - ESE 1018,6 12 0,0
21.04.2019 13:00:00 14,9 8,7 - 15 8 - - ESE 1019,5 20 0,0
21.04.2019 12:00:00 15,9 8,4 - 15 8 - - E 1020,1 28 0,0
21.04.2019 11:00:00 15,2 7,5 - 13 7 - - E 1020,7 30 0,0
21.04.2019 10:00:00 15,5 7,1 12,7 13 7 - - E 1021,3 20 0,0
21.04.2019 09:00:00 14,9 7,0 - 9 5 - - E 1021,7 28 0,0
21.04.2019 08:00:00 14,4 6,7 - 13 7 - - NE 1022,2 20 0,0
21.04.2019 07:00:00 12,9 6,2 - 15 8 - - NE 1022,5 18 0,0
21.04.2019 06:00:00 12,4 7,0 - 15 8 - - NNE 1022,7 13 0,0
21.04.2019 05:00:00 11,5 9,2 - 15 8 - - NNE 1023,3 7 0,0
21.04.2019 04:00:00 11,7 8,8 - 15 8 - - NNE 1024,0 8 0,0
21.04.2019 03:00:00 12,2 8,4 - 15 8 - - N 1024,7 9 0,0
21.04.2019 02:00:00 12,5 8,1 - 16 9 - - N 1025,6 10 0,0
21.04.2019 01:00:00 12,8 7,9 - 15 8 - - NNE 1026,4 10 0,0
21.04.2019 00:00:00 12,5 7,8 - 13 7 - - NNE 1026,8 11 0,0
20.04.2019 23:00:00 12,2 8,5 - 13 7 - - NNE 1027,4 12 0,0
20.04.2019 22:00:00 12,0 8,5 - 13 7 - - NNE 1027,9 12 0,0
20.04.2019 21:00:00 12,4 8,6 - 13 7 - - NNE 1028,0 12 0,0
20.04.2019 20:00:00 14,3 7,7 - 9 5 - - N 1027,8 13 0,0
20.04.2019 19:00:00 15,8 8,9 - 11 6 - - N 1028,1 19 0,0
20.04.2019 18:00:00 18,9 7,4 - 5 3 - - N 1028,3 10 0,0
20.04.2019 17:00:00 19,3 6,7 - 4 2 - - S 1028,5 10 0,0
20.04.2019 16:00:00 19,0 4,3 - 9 5 - - ESE 1029,1 35 0,0
20.04.2019 15:00:00 17,2 6,8 - 11 6 - - E 1029,7 24 0,0
20.04.2019 14:00:00 17,3 7,1 - 169 91 - - ESE 1029,9 10 0,0
20.04.2019 13:00:00 16,4 7,7 - 13 7 - - E 1030,3 18 0,0
20.04.2019 12:00:00 16,0 8,8 - 13 7 - - E 1030,5 12 0,0
20.04.2019 11:00:00 16,2 8,7 - 11 6 - - E 1030,4 14 0,0
20.04.2019 10:00:00 16,5 8,4 12,0 13 7 - - NE 1030,3 10 0,0
20.04.2019 09:00:00 15,2 9,1 - 15 8 - - NNE 1030,5 12 0,0
20.04.2019 08:00:00 13,5 8,9 - 15 8 - - NNE 1030,6 9 0,0
20.04.2019 07:00:00 11,8 8,8 - 15 8 - - NNE 1030,5 10 0,0
20.04.2019 06:00:00 11,7 9,1 - 15 8 - - NNE 1030,1 10 0,0
20.04.2019 05:00:00 12,0 8,7 - 15 8 - - N 1030,0 9 0,0
20.04.2019 04:00:00 13,1 8,2 - 13 7 - - N 1030,2 12 0,0
20.04.2019 03:00:00 14,0 7,3 - 9 5 - - NNE 1030,3 17 0,0
20.04.2019 02:00:00 13,5 7,8 - 11 6 - - NNE 1030,3 16 0,0
20.04.2019 01:00:00 13,0 7,9 - 13 7 - - NNE 1030,4 13 0,0
20.04.2019 00:00:00 13,3 7,8 - 13 7 - - NE 1030,6 12 0,0
19.04.2019 23:00:00 13,3 8,3 - 15 8 - - ENE 1030,3 11 0,0
19.04.2019 22:00:00 12,4 8,3 - 13 7 - - ENE 1029,9 10 0,0
19.04.2019 21:00:00 12,5 8,4 - 13 7 - - NE 1029,8 10 0,0
19.04.2019 20:00:00 12,9 8,5 - 15 8 - - ENE 1029,4 9 0,0
19.04.2019 19:00:00 13,7 8,7 - 15 8 - - ENE 1029,1 9 0,0
19.04.2019 18:00:00 14,2 9,2 - 15 8 - - ENE 1028,5 10 0,0
19.04.2019 17:00:00 14,0 9,1 - 15 8 - - E 1028,1 8 0,0
19.04.2019 16:00:00 14,4 9,2 - 15 8 - - E 1027,8 8 0,0
19.04.2019 15:00:00 14,3 9,2 - 21 11 - - E 1027,9 8 0,0
19.04.2019 14:00:00 14,5 9,4 - 22 12 - - E 1027,7 8 0,0
19.04.2019 13:00:00 14,9 9,6 - 22 12 - - E 1027,8 10 0,0
19.04.2019 12:00:00 14,4 9,2 - 26 14 - - E 1027,4 13 0,0
19.04.2019 11:00:00 14,3 9,6 - 26 14 - - E 1026,6 10 0,0
19.04.2019 10:00:00 13,7 9,4 11,5 22 12 - - E 1026,0 10 0,0
19.04.2019 09:00:00 12,9 9,0 - 18 10 - - ENE 1025,6 10 0,0
19.04.2019 08:00:00 12,2 9,0 - 18 10 - - ENE 1025,3 8 0,0
19.04.2019 07:00:00 11,6 8,7 - 18 10 - - NE 1024,6 9 0,0
19.04.2019 06:00:00 11,2 8,6 - 18 10 - - NE 1024,2 7 0,0
19.04.2019 05:00:00 11,2 8,7 - 16 9 - - ENE 1024,1 6 0,0
19.04.2019 04:00:00 11,7 8,5 - 21 11 - - ENE 1023,8 8 0,0
19.04.2019 03:00:00 11,5 9,0 - 18 10 - - ENE 1023,5 7 0,0
19.04.2019 02:00:00 10,9 9,3 - 18 10 - - NE 1023,6 6 0,0
19.04.2019 01:00:00 11,0 9,3 - 13 7 - - ENE 1023,3 6 0,0
19.04.2019 00:00:00 11,2 9,6 - 13 7 - - ESE 1022,7 8 0,0
18.04.2019 23:00:00 11,3 9,6 - 18 10 - - ESE 1022,2 8 0,0
18.04.2019 22:00:00 11,7 9,7 - 21 11 - - E 1022,2 8 0,0
18.04.2019 21:00:00 11,5 9,6 - 21 11 - - E 1021,6 8 0,0
18.04.2019 20:00:00 11,8 9,8 - 22 12 - - E 1021,1 9 0,0
18.04.2019 19:00:00 12,3 9,8 - 21 11 - - E 1020,4 7 0,0
18.04.2019 18:00:00 12,7 10,1 - 29 16 - - E 1019,8 4,0 0,0
18.04.2019 17:00:00 12,2 9,9 - 35 19 - - E 1019,2 4,0 0,0
18.04.2019 16:00:00 12,3 9,9 - 37 20 48 26 E 1018,6 5 0,0
18.04.2019 15:00:00 13,0 10,2 - 35 19 46 25 E 1018,3 5 0,0
18.04.2019 14:00:00 12,6 10,0 - 37 20 48 26 E 1018,2 5 0,0
18.04.2019 13:00:00 12,7 10,3 - 39 21 52 28 E 1017,7 6 0,0
18.04.2019 12:00:00 12,4 10,2 - 44 24 54 29 E 1017,3 6 0,0
18.04.2019 11:00:00 11,8 9,8 - 39 21 52 28 E 1017,3 7 0,0
18.04.2019 10:00:00 11,6 9,8 11,2 39 21 52 28 E 1017,1 7 0,0
18.04.2019 09:00:00 11,8 9,5 - 39 21 52 28 E 1016,4 8 0,0
18.04.2019 08:00:00 11,4 9,4 - 39 21 50 27 E 1015,5 8 0,0
18.04.2019 07:00:00 11,1 9,2 - 35 19 52 28 E 1015,0 9 0,0
18.04.2019 06:00:00 11,2 9,4 - 46 25 55 30 E 1014,6 8 0,0
18.04.2019 05:00:00 11,0 9,4 - 44 24 55 30 E 1014,3 7 0,0
18.04.2019 04:00:00 10,9 9,3 - 44 24 57 31 E 1015,0 8 0,0
18.04.2019 03:00:00 10,9 9,0 - 46 25 59 32 E 1015,3 8 0,0
18.04.2019 02:00:00 11,1 8,7 - 44 24 59 32 E 1015,6 8 0,0
18.04.2019 01:00:00 11,1 8,3 - 46 25 63 34 E 1015,8 9 0,0
18.04.2019 00:00:00 11,4 8,1 - 50 27 61 33 E 1015,5 12 0,0
17.04.2019 23:00:00 11,3 8,2 - 46 25 59 32 E 1015,3 13 0,0
17.04.2019 22:00:00 11,3 8,3 - 46 25 61 33 E 1015,2 11 0,0
17.04.2019 21:00:00 11,4 8,2 - 44 24 59 32 E 1014,7 13 0,0
17.04.2019 20:00:00 11,5 8,0 - 41 22 52 28 E 1014,1 14 0,0
17.04.2019 19:00:00 11,5 8,4 - 37 20 52 28 E 1014,0 12 0,0
17.04.2019 18:00:00 11,7 8,5 - 42 23 55 30 E 1014,4 10 0,0

tt = temperature
td = dewpoint
tt -20cm = temperature -20cm
ff = wind speed
fx = gusts
dd = wind direction
ppp = reduced air pressure
vv = visibility
rr = precipitation

Next stations